EWG149 LFPG-EDDH

Flight info

Callsign EWG149
Flight time 1h 7m
Altitude 36000
Route NURMO DCT CMB DCT VEKIN DCT ADUTO N873 VICOT/N0458F350 DCT PABCO/N0457F370 M105 RIBSO RIBSO7A
Aircraft A320/M-SDE3FGHIRWY/LB1

Departure

Time 2026-04-20 17:13
Airport Charles de Gaulle International Airport (LFPG)

Arrival

Time 2026-04-20 18:21
Airport Hamburg Helmut Schmidt Airport (EDDH)
Time Latitude Longitude Altitude Speed Heading
2026-04-20 16:42 49.00196 2.56738 355 ft 0 kts 355°
2026-04-20 17:04 49.00177 2.56741 362 ft 4 kts 355°
2026-04-20 17:04 49.00150 2.56744 354 ft 4 kts 355°
2026-04-20 17:04 49.00129 2.56748 362 ft 4 kts 319°
2026-04-20 17:05 49.00122 2.56778 354 ft 4 kts 266°
2026-04-20 17:05 49.00123 2.56809 360 ft 0 kts 265°
2026-04-20 17:07 49.00123 2.56803 354 ft 3 kts 265°
2026-04-20 17:07 49.00116 2.56679 361 ft 14 kts 265°
2026-04-20 17:07 49.00108 2.56537 361 ft 13 kts 265°
2026-04-20 17:08 49.00102 2.56410 362 ft 11 kts 265°
2026-04-20 17:08 49.00094 2.56276 354 ft 13 kts 265°
2026-04-20 17:08 49.00088 2.56151 362 ft 11 kts 265°
2026-04-20 17:08 49.00081 2.56033 361 ft 11 kts 265°
2026-04-20 17:09 49.00075 2.55920 363 ft 10 kts 265°
2026-04-20 17:09 49.00072 2.55783 354 ft 17 kts 269°
2026-04-20 17:09 49.00062 2.55656 357 ft 10 kts 237°
2026-04-20 17:09 49.00006 2.55660 354 ft 9 kts 162°
2026-04-20 17:10 48.99945 2.55711 360 ft 14 kts 137°
2026-04-20 17:10 48.99869 2.55793 354 ft 13 kts 169°
2026-04-20 17:10 48.99781 2.55802 362 ft 12 kts 176°
2026-04-20 17:10 48.99703 2.55813 354 ft 7 kts 172°
2026-04-20 17:11 48.99695 2.55814 354 ft 0 kts 172°
2026-04-20 17:12 48.99634 2.55827 353 ft 14 kts 172°
2026-04-20 17:12 48.99603 2.55885 353 ft 0 kts 91°
2026-04-20 17:12 48.99603 2.55904 360 ft 16 kts 90°
2026-04-20 17:12 48.99634 2.56469 355 ft 87 kts 85°
2026-04-20 17:13 48.99699 2.57684 360 ft 140 kts 85°
2026-04-20 17:13 48.99783 2.59294 744 ft 153 kts 84°
2026-04-20 17:13 48.99868 2.60916 1455 ft 155 kts 81°
2026-04-20 17:13 48.99971 2.62638 1860 ft 174 kts 81°
2026-04-20 17:14 49.00087 2.64561 2129 ft 196 kts 81°
2026-04-20 17:14 49.00211 2.66763 2440 ft 221 kts 82°
2026-04-20 17:14 49.00337 2.69217 2931 ft 241 kts 83°
2026-04-20 17:14 49.00467 2.71806 3743 ft 247 kts 83°
2026-04-20 17:15 49.00597 2.74440 4642 ft 252 kts 83°
2026-04-20 17:15 49.00729 2.77120 5532 ft 255 kts 83°
2026-04-20 17:15 49.00865 2.79856 6319 ft 263 kts 84°
2026-04-20 17:15 49.01010 2.82673 7013 ft 271 kts 82°
2026-04-20 17:16 49.01577 2.85409 7697 ft 274 kts 56°
2026-04-20 17:16 49.02882 2.87498 8427 ft 275 kts 30°
2026-04-20 17:16 49.04646 2.88567 9204 ft 276 kts
2026-04-20 17:16 49.06553 2.88520 10023 ft 276 kts 351°
2026-04-20 17:17 49.08487 2.88187 10598 ft 288 kts 351°
2026-04-20 17:17 49.10560 2.87824 10825 ft 312 kts 351°
2026-04-20 17:17 49.12794 2.87436 11002 ft 335 kts 351°
2026-04-20 17:17 49.15160 2.87031 11436 ft 346 kts 351°
2026-04-20 17:18 49.17568 2.86625 12125 ft 350 kts 351°
2026-04-20 17:18 49.20000 2.86218 12868 ft 353 kts 351°
2026-04-20 17:18 49.22444 2.85809 13609 ft 354 kts 350°
2026-04-20 17:18 49.24906 2.85395 14300 ft 356 kts 350°
2026-04-20 17:19 49.27379 2.84978 14930 ft 359 kts 350°
2026-04-20 17:19 49.29869 2.84559 15576 ft 361 kts 350°
2026-04-20 17:19 49.32374 2.84135 16228 ft 362 kts 349°
2026-04-20 17:19 49.34885 2.83706 16857 ft 364 kts 349°
2026-04-20 17:20 49.37379 2.83282 17458 ft 366 kts 349°
2026-04-20 17:20 49.39917 2.82853 18058 ft 368 kts 349°
2026-04-20 17:20 49.42466 2.82419 18627 ft 370 kts 348°
2026-04-20 17:20 49.45024 2.81980 19121 ft 371 kts 348°
2026-04-20 17:21 49.47602 2.81538 19595 ft 374 kts 348°
2026-04-20 17:21 49.50200 2.81096 20092 ft 377 kts 348°
2026-04-20 17:21 49.52812 2.80656 20582 ft 379 kts 347°
2026-04-20 17:21 49.55440 2.80213 21042 ft 381 kts 347°
2026-04-20 17:22 49.58087 2.79763 21504 ft 384 kts 347°
2026-04-20 17:22 49.60750 2.79304 21951 ft 386 kts 347°
2026-04-20 17:22 49.63427 2.78836 22392 ft 389 kts 346°
2026-04-20 17:22 49.66130 2.78363 22828 ft 392 kts 346°
2026-04-20 17:23 49.68845 2.77890 23262 ft 394 kts 346°
2026-04-20 17:23 49.71584 2.77417 23708 ft 397 kts 346°
2026-04-20 17:23 49.74329 2.76947 24104 ft 397 kts 346°
2026-04-20 17:23 49.77047 2.76486 24481 ft 399 kts 346°
2026-04-20 17:24 49.79858 2.76360 24825 ft 410 kts 355°
2026-04-20 17:24 49.82720 2.77039 25150 ft 424 kts
2026-04-20 17:24 49.85544 2.78585 25482 ft 439 kts 17°
2026-04-20 17:24 49.88233 2.80974 25792 ft 450 kts 23°
2026-04-20 17:25 49.90886 2.83579 26112 ft 452 kts 24°
2026-04-20 17:25 49.93550 2.86201 26452 ft 454 kts 23°
2026-04-20 17:25 49.96224 2.88832 26782 ft 455 kts 23°
2026-04-20 17:25 49.98901 2.91462 27123 ft 456 kts 23°
2026-04-20 17:26 50.01557 2.94072 27408 ft 458 kts 23°
2026-04-20 17:26 50.04253 2.96727 27685 ft 461 kts 23°
2026-04-20 17:26 50.06965 2.99408 27960 ft 463 kts 23°
2026-04-20 17:26 50.09685 3.02103 28233 ft 465 kts 23°
2026-04-20 17:27 50.12420 3.04815 28554 ft 465 kts 23°
2026-04-20 17:27 50.15147 3.07525 28955 ft 464 kts 23°
2026-04-20 17:27 50.17862 3.10231 29441 ft 462 kts 23°
2026-04-20 17:27 50.20566 3.12929 29890 ft 461 kts 22°
2026-04-20 17:28 50.23302 3.15471 30283 ft 452 kts 17°
2026-04-20 17:28 50.26135 3.17492 30606 ft 447 kts 14°
2026-04-20 17:28 50.28979 3.19468 30908 ft 447 kts 14°
2026-04-20 17:28 50.31823 3.21451 31210 ft 447 kts 14°
2026-04-20 17:29 50.34666 3.23439 31537 ft 448 kts 14°
2026-04-20 17:29 50.37510 3.25435 31849 ft 448 kts 15°
2026-04-20 17:29 50.40353 3.27438 32145 ft 449 kts 15°
2026-04-20 17:29 50.43189 3.29510 32429 ft 450 kts 17°
2026-04-20 17:30 50.46005 3.31683 32705 ft 452 kts 18°
2026-04-20 17:30 50.48815 3.33924 32982 ft 453 kts 19°
2026-04-20 17:30 50.51624 3.36188 33262 ft 453 kts 19°
2026-04-20 17:30 50.54453 3.38355 33547 ft 451 kts 17°
2026-04-20 17:31 50.57309 3.40383 33824 ft 450 kts 16°
2026-04-20 17:31 50.60186 3.42321 34141 ft 450 kts 15°
2026-04-20 17:31 50.63074 3.44227 34383 ft 450 kts 16°
2026-04-20 17:31 50.65961 3.46138 34637 ft 450 kts 17°
2026-04-20 17:32 50.68843 3.48080 34889 ft 450 kts 17°
2026-04-20 17:32 50.71722 3.50051 35123 ft 451 kts 18°
2026-04-20 17:32 50.74601 3.52048 35198 ft 453 kts 18°
2026-04-20 17:33 50.80351 3.56060 35211 ft 456 kts 18°
2026-04-20 17:33 50.86151 3.60132 35209 ft 455 kts 19°
2026-04-20 17:34 50.91943 3.64186 35210 ft 455 kts 19°
2026-04-20 17:34 50.97730 3.68291 35212 ft 455 kts 19°
2026-04-20 17:35 51.03504 3.72451 35204 ft 455 kts 19°
2026-04-20 17:35 51.09269 3.76631 35205 ft 455 kts 19°
2026-04-20 17:36 51.15031 3.80799 35221 ft 455 kts 20°
2026-04-20 17:36 51.20791 3.84974 35210 ft 455 kts 20°
2026-04-20 17:37 51.26546 3.89160 35214 ft 455 kts 20°
2026-04-20 17:37 51.32302 3.93360 35225 ft 455 kts 20°
2026-04-20 17:38 51.38057 3.97580 35226 ft 455 kts 20°
2026-04-20 17:38 51.43764 4.01794 35220 ft 454 kts 21°
2026-04-20 17:39 51.49156 4.07175 35217 ft 463 kts 37°
2026-04-20 17:39 51.53596 4.14726 35230 ft 466 kts 45°
2026-04-20 17:40 51.57932 4.22477 35232 ft 466 kts 45°
2026-04-20 17:40 51.62259 4.30224 35226 ft 465 kts 45°
2026-04-20 17:41 51.66573 4.37995 35223 ft 465 kts 45°
2026-04-20 17:41 51.70882 4.45776 35219 ft 465 kts 45°
2026-04-20 17:42 51.75184 4.53580 35227 ft 465 kts 45°
2026-04-20 17:42 51.79480 4.61381 35226 ft 465 kts 45°
2026-04-20 17:43 51.83770 4.69199 35219 ft 465 kts 45°
2026-04-20 17:43 51.88051 4.77023 35215 ft 464 kts 45°
2026-04-20 17:44 51.91610 4.83543 35219 ft 465 kts 46°
2026-04-20 17:44 51.95884 4.91398 35241 ft 464 kts 46°
2026-04-20 17:45 52.00148 4.99262 35236 ft 464 kts 46°
2026-04-20 17:45 52.04404 5.07136 35233 ft 464 kts 46°
2026-04-20 17:46 52.08642 5.15027 35239 ft 463 kts 46°
2026-04-20 17:46 52.12883 5.22925 35231 ft 463 kts 46°
2026-04-20 17:47 52.17123 5.30823 35247 ft 463 kts 46°
2026-04-20 17:47 52.21353 5.38731 35250 ft 462 kts 47°
2026-04-20 17:48 52.25537 5.46606 35267 ft 462 kts 47°
2026-04-20 17:48 52.29770 5.54594 35262 ft 462 kts 47°
2026-04-20 17:49 52.33946 5.62486 35262 ft 462 kts 47°
2026-04-20 17:49 52.38140 5.70445 35245 ft 462 kts 47°
2026-04-20 17:50 52.42331 5.78426 35253 ft 461 kts 47°
2026-04-20 17:50 52.46511 5.86397 35255 ft 461 kts 47°
2026-04-20 17:51 52.50676 5.94376 35251 ft 460 kts 47°
2026-04-20 17:51 52.54827 6.02374 35247 ft 460 kts 48°
2026-04-20 17:52 52.58973 6.10372 35246 ft 459 kts 48°
2026-04-20 17:52 52.63114 6.18374 35254 ft 458 kts 49°
2026-04-20 17:53 52.67237 6.26365 35253 ft 457 kts 49°
2026-04-20 17:53 52.71339 6.34346 35254 ft 456 kts 49°
2026-04-20 17:54 52.75428 6.42327 35249 ft 455 kts 49°
2026-04-20 17:54 52.79477 6.50257 35242 ft 454 kts 49°
2026-04-20 17:55 52.83544 6.58261 35246 ft 454 kts 49°
2026-04-20 17:55 52.87589 6.66265 35253 ft 452 kts 52°
2026-04-20 17:55 52.89210 6.70717 35248 ft 452 kts 67°
2026-04-20 17:56 52.90213 6.75654 35246 ft 452 kts 72°
2026-04-20 17:56 52.92028 6.85621 35239 ft 452 kts 72°
2026-04-20 17:57 52.93808 6.95614 35228 ft 452 kts 73°
2026-04-20 17:57 52.95589 7.05623 35222 ft 452 kts 73°
2026-04-20 17:58 52.97364 7.15621 35214 ft 452 kts 73°
2026-04-20 17:58 52.99119 7.25569 34936 ft 452 kts 73°
2026-04-20 17:58 52.99999 7.30583 34700 ft 451 kts 73°
2026-04-20 17:59 53.00873 7.35587 34463 ft 451 kts 73°
2026-04-20 17:59 53.01746 7.40577 34236 ft 450 kts 73°
2026-04-20 17:59 53.02617 7.45551 33973 ft 447 kts 74°
2026-04-20 17:59 53.03478 7.50497 33696 ft 443 kts 74°
2026-04-20 18:00 53.04332 7.55414 32919 ft 444 kts 74°
2026-04-20 18:00 53.05188 7.60360 31990 ft 445 kts 74°
2026-04-20 18:00 53.06043 7.65312 31036 ft 448 kts 74°
2026-04-20 18:00 53.06903 7.70309 29998 ft 451 kts 74°
2026-04-20 18:01 53.07763 7.75320 28915 ft 451 kts 74°
2026-04-20 18:01 53.08624 7.80360 27776 ft 453 kts 74°
2026-04-20 18:01 53.09482 7.85397 26643 ft 454 kts 74°
2026-04-20 18:01 53.10331 7.90398 25705 ft 453 kts 74°
2026-04-20 18:02 53.11180 7.95399 24991 ft 446 kts 73°
2026-04-20 18:02 53.12015 8.00336 24216 ft 441 kts 73°
2026-04-20 18:02 53.12837 8.05212 23391 ft 436 kts 73°
2026-04-20 18:02 53.13649 8.10039 22665 ft 429 kts 73°
2026-04-20 18:03 53.14444 8.14793 21974 ft 423 kts 73°
2026-04-20 18:03 53.15226 8.19473 21305 ft 417 kts 73°
2026-04-20 18:03 53.15999 8.24105 20649 ft 413 kts 73°
2026-04-20 18:03 53.16766 8.28698 20011 ft 408 kts 73°
2026-04-20 18:04 53.17520 8.33231 19393 ft 404 kts 73°
2026-04-20 18:04 53.18264 8.37720 18798 ft 400 kts 73°
2026-04-20 18:04 53.19000 8.42170 18165 ft 395 kts 74°
2026-04-20 18:04 53.19723 8.46551 17616 ft 389 kts 74°
2026-04-20 18:05 53.21123 8.55107 16580 ft 376 kts 74°
2026-04-20 18:05 53.21791 8.59227 16088 ft 370 kts 74°
2026-04-20 18:05 53.22457 8.63348 15607 ft 365 kts 74°
2026-04-20 18:06 53.23116 8.67423 15115 ft 362 kts 75°
2026-04-20 18:06 53.23769 8.71453 14640 ft 357 kts 75°
2026-04-20 18:06 53.24417 8.75436 14151 ft 354 kts 75°
2026-04-20 18:06 53.25059 8.79385 13611 ft 351 kts 75°
2026-04-20 18:07 53.25692 8.83298 13092 ft 347 kts 75°
2026-04-20 18:07 53.26315 8.87173 12560 ft 344 kts 75°
2026-04-20 18:07 53.26929 8.91010 12012 ft 340 kts 75°
2026-04-20 18:07 53.27535 8.94813 11466 ft 338 kts 75°
2026-04-20 18:08 53.28130 8.98566 11215 ft 328 kts 75°
2026-04-20 18:08 53.28698 9.02153 11204 ft 310 kts 75°
2026-04-20 18:08 53.29232 9.05540 11207 ft 293 kts 75°
2026-04-20 18:08 53.29741 9.08743 11207 ft 279 kts 75°
2026-04-20 18:09 53.30233 9.11842 11208 ft 274 kts 75°
2026-04-20 18:09 53.30721 9.14912 11206 ft 270 kts 75°
2026-04-20 18:09 53.31194 9.17893 11205 ft 263 kts 75°
2026-04-20 18:09 53.31659 9.20839 11206 ft 262 kts 75°
2026-04-20 18:10 53.32125 9.23779 11151 ft 261 kts 75°
2026-04-20 18:10 53.32588 9.26710 10737 ft 263 kts 75°
2026-04-20 18:10 53.33050 9.29675 10252 ft 263 kts 75°
2026-04-20 18:10 53.33509 9.32644 9551 ft 264 kts 75°
2026-04-20 18:11 53.33966 9.35606 8911 ft 264 kts 75°
2026-04-20 18:11 53.34425 9.38569 8559 ft 261 kts 75°
2026-04-20 18:11 53.34901 9.41450 8187 ft 260 kts 70°
2026-04-20 18:11 53.35740 9.44115 7770 ft 260 kts 55°
2026-04-20 18:12 53.36898 9.46439 7398 ft 259 kts 51°
2026-04-20 18:12 53.38053 9.48717 6901 ft 254 kts 52°
2026-04-20 18:12 53.39197 9.50992 6326 ft 257 kts 52°
2026-04-20 18:12 53.40355 9.53293 6012 ft 251 kts 52°
2026-04-20 18:13 53.41441 9.55457 5878 ft 240 kts 52°
2026-04-20 18:13 53.42489 9.57551 5744 ft 229 kts 51°
2026-04-20 18:13 53.43479 9.59551 5611 ft 218 kts 52°
2026-04-20 18:13 53.44430 9.61468 5509 ft 211 kts 51°
2026-04-20 18:14 53.45366 9.63340 5262 ft 209 kts 51°
2026-04-20 18:14 53.46298 9.65204 4998 ft 208 kts 51°
2026-04-20 18:14 53.47230 9.67062 4700 ft 207 kts 52°
2026-04-20 18:14 53.48132 9.68860 4418 ft 196 kts 52°
2026-04-20 18:15 53.48981 9.70556 4171 ft 182 kts 52°
2026-04-20 18:15 53.49763 9.72119 3929 ft 168 kts 52°
2026-04-20 18:15 53.50469 9.73532 3717 ft 148 kts 53°
2026-04-20 18:15 53.51101 9.74796 3517 ft 136 kts 53°
2026-04-20 18:16 53.51701 9.76001 3327 ft 134 kts 53°
2026-04-20 18:16 53.52297 9.77196 3140 ft 132 kts 53°
2026-04-20 18:16 53.52888 9.78380 2953 ft 132 kts 53°
2026-04-20 18:16 53.53477 9.79563 2776 ft 131 kts 53°
2026-04-20 18:17 53.54062 9.80738 2594 ft 131 kts 54°
2026-04-20 18:17 53.54645 9.81911 2415 ft 131 kts 53°
2026-04-20 18:17 53.55226 9.83077 2234 ft 130 kts 53°
2026-04-20 18:17 53.55807 9.84244 2054 ft 130 kts 52°
2026-04-20 18:18 53.56384 9.85406 1870 ft 130 kts 52°
2026-04-20 18:18 53.56964 9.86572 1683 ft 129 kts 52°
2026-04-20 18:18 53.57542 9.87734 1504 ft 129 kts 51°
2026-04-20 18:18 53.58121 9.88899 1323 ft 129 kts 51°
2026-04-20 18:19 53.58696 9.90059 1126 ft 129 kts 51°
2026-04-20 18:19 53.59266 9.91208 940 ft 127 kts 51°
2026-04-20 18:19 53.59839 9.92361 740 ft 128 kts 49°
2026-04-20 18:19 53.60417 9.93525 537 ft 129 kts 49°
2026-04-20 18:20 53.60987 9.94678 367 ft 128 kts 49°
2026-04-20 18:20 53.61561 9.95839 203 ft 128 kts 48°
2026-04-20 18:20 53.62126 9.96981 46 ft 125 kts 47°
2026-04-20 18:20 53.62603 9.97940 41 ft 84 kts 50°
2026-04-20 18:21 53.62885 9.98511 44 ft 53 kts 50°
2026-04-20 18:21 53.63095 9.98943 46 ft 43 kts 49°
2026-04-20 18:21 53.63264 9.99304 47 ft 36 kts 60°
2026-04-20 18:21 53.63280 9.99629 48 ft 14 kts 99°
2026-04-20 18:22 53.63278 9.99652 48 ft 0 kts 99°
2026-04-20 18:23 53.63278 9.99653 48 ft 1 kts 99°
2026-04-20 18:23 53.63274 9.99711 48 ft 9 kts 92°
2026-04-20 18:24 53.63306 9.99820 47 ft 12 kts 52°
2026-04-20 18:24 53.63361 9.99932 48 ft 13 kts 50°
2026-04-20 18:24 53.63412 10.00032 47 ft 10 kts 49°
2026-04-20 18:24 53.63416 10.00140 48 ft 12 kts 133°
2026-04-20 18:25 53.63389 10.00156 48 ft 2 kts 167°
2026-04-20 18:25 53.63367 10.00199 47 ft 5 kts 81°
2026-04-20 18:25 53.63370 10.00268 48 ft 7 kts 87°
2026-04-20 18:25 53.63372 10.00316 48 ft 2 kts 86°
2026-04-20 18:26 53.63372 10.00334 48 ft 1 kts 86°
2026-04-20 18:26 53.63373 10.00338 48 ft 0 kts 86°